Terug naar catalogus

STRV 1D

ActiefWetenschapGTO
NORAD 26611·PAYLOAD·🇬🇧 United Kingdom

Gelanceerd Nov 16, 2000 vanaf Guiana Space Centre

Loading…

TLE

VerouderendSource: Space-Track

Epoch: Sep 14, 2026, 06:01 UTC

1 26611U 00072D   26257.25119239 -.00000030  00000-0  44811-2 0  9993
2 26611   7.1338 342.7294 7340710 235.0086  33.2420  2.03410230 92300

Volg STRV 1D in realtime met AllMySat

Download on the App Store